Location: Le Petit-Vavre
(46.5081°N, 1.5239°E)
Time: 05:02:27
(UTC+00:00)

Cosmos 1844 Rocket - Pass Details

Date: 03 March 2021
Orbit: 826 x 843 km, 71.0° (Epoch: 18 April)

Event Time Altitude Azimuth Distance (km) Brightness Sun altitude
Rises 20:05:34 0° 326° (NW) 3,374 6.6 -25.1°
Reaches altitude 10° 20:08:12 10° 317° (NW) 2,436 5.9 -25.5°
Maximum altitude 20:13:07 33° 255° (WSW) 1,357 4.2 -26.3°
Enters shadow 20:17:45 11° 194° (SSW) 2,329 4.9 -27.0°
